[[[{"header":{"parameterUnit":"kt","parameterCategory":2,"dx":1,"dy":1,"la1":30.253999710083008,"la2":30.299108505249023,"lo1":-89.0895004272461,"lo2":-89.04439544677734,"nx":28,"ny":28,"refTime":"2022-10-19T21:00:00:Z","depth":0,"parameterNumber":1,"parameterNumberName":"U-component_of_WINDS"},"data":[3.4786,3.4927,3.4874,3.5012,3.4988,3.5074,3.5088,3.5101,3.5098,3.5196,3.5243,3.5207,3.5185,3.523,3.528,3.5263,3.5287,3.5374,3.5339,3.4994,3.4943,3.4894,3.4855,3.5381,3.5381,3.5702,3.5705,3.5707,3.4534,3.4511,3.4569,3.4589,3.4638,3.4522,3.453,3.4579,3.466,3.4659,3.4703,3.4785,3.4845,3.4793,3.4842,3.4908,3.4857,3.4925,3.4918,3.4916,3.4546,3.4505,3.4965,3.4965,3.4965,3.4965,3.4965,3.4965,3.406,3.4148,3.4128,3.419,3.4187,3.4202,3.4277,3.4229,3.4286,3.4329,3.4257,3.4349,3.4339,3.4374,3.4373,3.4443,3.4359,3.4418,3.4432,3.4448,3.4472,3.4012,3.445,3.4449,3.4447,3.4446,3.4445,0,3.3696,3.3645,3.3698,3.3735,3.3777,3.3802,3.3816,3.3861,3.3738,3.3792,3.3865,3.3899,3.3966,3.403,3.4065,3.4051,3.3937,3.3921,3.3961,3.3996,3.4022,3.4007,3.3404,3.3909,3.3904,3.3901,3.3898,3.3896,3.3212,3.3322,3.3277,3.3321,3.3315,3.339,3.3423,3.3306,3.3347,3.3348,3.3433,3.3495,3.3538,3.3667,3.3612,3.3663,3.3608,3.3806,3.3615,3.3644,3.3608,3.3602,3.3612,3.3845,3.3852,3.3857,3.3861,0,3.2944,3.2857,3.301,3.2955,3.2945,3.3067,3.302,3.3105,3.3049,3.3158,3.3177,3.3091,3.3166,3.3077,3.3147,3.3099,3.3299,3.3245,3.33,3.3284,3.3451,3.3436,3.4011,3.4079,3.3535,3.354,3.3545,0,3.2497,3.2647,3.2506,3.2601,3.2763,3.264,3.2804,3.2772,3.276,3.2845,3.27,3.2783,3.2657,3.2728,3.2657,3.2805,3.2819,3.279,3.2769,3.2802,3.2806,3.2823,3.2797,3.2721,3.2718,3.2715,3.2713,0,3.2085,3.2187,3.2339,3.2348,3.2306,3.2381,3.2367,3.2353,3.2388,3.2419,3.244,3.2488,3.2514,3.2553,3.2461,3.2335,3.2641,3.2448,3.2611,3.2614,3.2683,3.268,3.3212,3.2709,3.2709,3.2708,3.2707,0,3.1709,3.1741,3.1976,3.1935,3.1967,3.207,3.2104,3.2171,3.2167,3.2127,3.2152,3.2044,3.2168,3.1982,3.215,3.201,3.2045,3.2028,3.2039,3.2043,3.1838,3.2148,3.2664,3.2714,3.2049,3.2043,3.2038,0,3.126,3.1474,3.1369,3.1596,3.1682,3.1509,3.162,3.1621,3.1577,3.1644,3.1596,3.1676,3.1519,3.1531,3.1626,3.158,3.1762,3.1554,3.1654,3.1659,3.1657,3.2131,3.2229,3.2561,3.1967,3.1974,3.198,0,3.0901,3.0847,3.0895,3.0899,3.0879,3.0951,3.108,3.113,3.118,3.1199,3.1303,3.1414,3.1298,3.1322,3.124,3.1344,3.1636,3.1207,3.1205,3.1286,3.1924,3.2016,3.2072,3.1558,3.1566,3.1573,3.1923,0,3.0349,3.0445,3.0571,3.0589,3.063,3.0769,3.0671,3.0727,3.0642,3.0592,3.0746,3.0726,3.078,3.0821,3.0741,3.1007,3.0948,3.0826,3.0638,3.0952,3.1064,3.1111,3.0478,3.0472,3.0466,3.0462,0,0,2.9941,3.0076,2.9957,3.0076,3.0103,2.9921,3.0078,3.0084,3.0104,3.0127,3.0021,3.0176,3.0166,3.0363,3.0453,3.0476,3.0514,3.041,3.0804,3.0842,3.0878,3.1,3.105,3.0453,3.0451,3.045,3.0448,0,2.9717,2.9706,2.9862,2.9861,2.9857,2.9796,2.9834,2.9798,2.9774,2.9924,2.9774,2.9855,2.9985,2.9991,3.0012,3.0383,3.0266,3.0408,3.0638,3.0756,3.0801,3.0841,3.0971,3.1019,3.0435,3.0436,3.0437,0,2.9344,2.9316,2.9381,2.9435,2.9431,2.9526,2.9303,2.9415,2.9484,2.9283,2.9435,2.9412,2.9415,2.9615,2.9702,2.9608,3.0046,2.9892,2.9922,2.9929,3.0039,3.0093,3.0142,2.9501,2.9498,2.9496,0,0,2.9165,2.9254,2.9188,2.9379,2.9387,2.9299,2.934,2.9259,2.9263,2.9266,2.9233,2.9244,2.9316,2.9367,2.9431,2.9665,2.9656,2.9781,2.9825,2.9861,2.9889,3.0008,3.0062,2.9485,2.9485,2.9484,0,0,2.908,2.9009,2.8921,2.9131,2.9139,2.9088,2.921,2.9101,2.9148,2.9122,2.8992,2.899,2.9175,2.916,2.9025,2.9362,2.9179,2.9209,2.9366,2.942,2.9463,2.9463,2.8796,0,0,0,0,0,2.88,2.9017,2.8938,2.8958,2.9028,2.9132,2.914,2.9036,2.8906,2.9005,2.896,2.8832,2.9059,2.8937,2.896,2.9112,2.9345,2.937,2.9393,2.9649,2.9707,2.9756,0,0,0,0,0,0,2.8807,2.8833,2.8932,2.8892,2.8906,2.9123,2.8881,2.8858,2.8893,2.8866,2.8845,2.8831,2.8747,2.8918,2.8941,2.9087,2.8788,2.9354,2.9376,2.9395,2.9669,2.9716,2.9757,0,0,0,0,0,2.8812,2.8833,2.8971,2.8888,2.8901,2.8814,2.8872,2.8851,2.8876,2.8808,2.879,2.8795,2.8754,2.8766,2.8931,2.9079,2.8772,2.878,2.9368,2.9385,2.94,2.9692,0,0,0,0,0,0,2.8816,2.8815,2.8971,2.8971,2.8798,2.88,2.8796,2.8845,2.8813,2.8798,2.8751,2.873,2.8761,2.8769,2.8779,2.9082,2.8758,2.8767,2.8773,2.9381,2.9394,2.9405,0,0,0,0,0,0,2.8803,2.8817,2.8971,2.8863,2.885,2.8787,2.8784,2.891,2.8816,2.8757,2.8739,2.8742,2.8747,2.8773,2.878,2.8981,2.8748,2.8756,2.8762,2.8766,2.9391,2.9402,0,0,0,0,0,0,2.8807,2.8818,2.8862,2.8853,2.884,2.8833,2.8897,2.8975,2.8721,2.8762,2.8695,2.8683,2.8755,2.8759,2.8782,2.8981,2.8981,2.8748,2.8754,2.8758,2.8761,0,0,0,0,0,0,0,2.881,2.876,2.8971,2.8844,2.8832,2.8971,2.8971,2.8971,2.8718,2.8708,2.8698,2.8688,2.8698,2.8708,2.8717,2.8981,0,0,2.8747,2.8751,0,0,0,0,0,0,0,0,2.8752,2.8758,2.8971,2.8971,2.8971,2.8971,2.8971,2.8971,2.8716,2.8708,2.87,2.8692,2.8701,2.8708,2.8716,0,0,0,0,0,0,0,0,0,0,0,0,0,0,0,2.8971,2.8971,0,2.8971,2.8971,2.8971,2.8715,2.8708,2.8702,2.8695,2.8703,2.8709,2.8716,0,0,0,0,0,0,0,0,0,0,0,0,0,0,0,0,0,0,0,0,0,0,0,0,0,0,0,0,0,0,0,0,0,0,0,0,0,0,0,0,0,0,0,0,0,0,0,0,0,0,0,0,0,0,0,0,0,0,0,0,0,0,0,0,0,0,0,0,0]}],[{"header":{"parameterUnit":"kt","parameterCategory":2,"dx":1,"dy":1,"la1":30.253999710083008,"la2":30.299108505249023,"lo1":-89.0895004272461,"lo2":-89.04439544677734,"nx":28,"ny":28,"refTime":"2022-10-19T21:00:00:Z","depth":0,"parameterNumber":2,"parameterNumberName":"V-component_of_WINDS"},"data":[-2.5952,-2.6032,-2.6093,-2.6214,-2.6289,-2.6383,-2.6436,-2.6512,-2.6588,-2.6709,-2.679,-2.6861,-2.6963,-2.7076,-2.7169,-2.7199,-2.7234,-2.7218,-2.7256,-2.727,-2.7276,-2.7282,-2.7266,-2.7225,-2.7224,-2.7234,-2.7234,-2.7234,-2.5957,-2.6031,-2.6112,-2.6233,-2.6304,-2.6355,-2.6456,-2.6513,-2.6596,-2.6691,-2.6773,-2.6886,-2.6983,-2.7093,-2.7198,-2.724,-2.7271,-2.7264,-2.7262,-2.7277,-2.7294,-2.7276,-2.7237,-2.7237,-2.7237,-2.7237,-2.7237,-2.7237,-2.5982,-2.6028,-2.6136,-2.6226,-2.6303,-2.6384,-2.6439,-2.6525,-2.6607,-2.6721,-2.678,-2.6876,-2.6984,-2.7142,-2.721,-2.7289,-2.7308,-2.732,-2.7324,-2.7325,-2.7318,-2.7297,-2.731,-2.731,-2.731,-2.7311,-2.7311,0,-2.6019,-2.6067,-2.6149,-2.625,-2.6319,-2.6403,-2.6491,-2.6528,-2.6652,-2.6715,-2.6811,-2.6878,-2.701,-2.7109,-2.7221,-2.7292,-2.7354,-2.7367,-2.7376,-2.7348,-2.7309,-2.7331,-2.7356,-2.7366,-2.7367,-2.7368,-2.7368,-2.7368,-2.6049,-2.6096,-2.6239,-2.6289,-2.6352,-2.6431,-2.6491,-2.6597,-2.6657,-2.6782,-2.6819,-2.6919,-2.7005,-2.7152,-2.7254,-2.7354,-2.7385,-2.7382,-2.7401,-2.7372,-2.7386,-2.7382,-2.7388,-2.7376,-2.7375,-2.7374,-2.7374,0,-2.606,-2.616,-2.6252,-2.639,-2.6427,-2.6471,-2.659,-2.6641,-2.672,-2.6802,-2.6828,-2.6951,-2.7045,-2.7149,-2.7278,-2.733,-2.7407,-2.7435,-2.737,-2.7382,-2.739,-2.7388,-2.7399,-2.7406,-2.745,-2.7449,-2.7449,0,-2.6125,-2.6183,-2.6328,-2.6377,-2.6445,-2.655,-2.6615,-2.6689,-2.6783,-2.6849,-2.6935,-2.6995,-2.7119,-2.7195,-2.7271,-2.7353,-2.7377,-2.7422,-2.7441,-2.7414,-2.7408,-2.7448,-2.745,-2.7483,-2.7483,-2.7483,-2.7483,0,-2.6132,-2.6278,-2.6357,-2.6406,-2.656,-2.6595,-2.6661,-2.6767,-2.6826,-2.6918,-2.6958,-2.7059,-2.7114,-2.7191,-2.7288,-2.7296,-2.739,-2.7422,-2.7436,-2.7434,-2.7451,-2.7449,-2.7433,-2.7483,-2.7483,-2.7483,-2.7483,0,-2.6199,-2.6289,-2.6389,-2.6519,-2.6553,-2.6606,-2.6711,-2.678,-2.6886,-2.6937,-2.7012,-2.7082,-2.7161,-2.7185,-2.7297,-2.7281,-2.7331,-2.7381,-2.7384,-2.7398,-2.7422,-2.7399,-2.7372,-2.7374,-2.741,-2.7409,-2.7409,0,-2.6179,-2.6307,-2.6398,-2.6491,-2.6564,-2.6656,-2.6717,-2.6808,-2.6881,-2.6955,-2.7037,-2.7121,-2.7161,-2.7202,-2.7243,-2.7332,-2.7353,-2.7332,-2.744,-2.7442,-2.7408,-2.7385,-2.7355,-2.7366,-2.7403,-2.7403,-2.7404,0,-2.6176,-2.6362,-2.6372,-2.6433,-2.657,-2.6632,-2.6701,-2.6807,-2.6851,-2.6945,-2.7007,-2.7128,-2.7163,-2.7229,-2.7298,-2.7335,-2.7342,-2.7369,-2.7373,-2.736,-2.7408,-2.7379,-2.7381,-2.738,-2.738,-2.7381,-2.7399,0,-2.6256,-2.6333,-2.6365,-2.6496,-2.656,-2.6624,-2.6733,-2.6787,-2.6845,-2.6921,-2.7014,-2.7117,-2.7226,-2.7255,-2.7314,-2.7367,-2.7374,-2.7411,-2.7442,-2.7426,-2.7435,-2.7438,-2.742,-2.7422,-2.7423,-2.7424,0,0,-2.6212,-2.6324,-2.6422,-2.6493,-2.6553,-2.6648,-2.6707,-2.6777,-2.6916,-2.6956,-2.6974,-2.7159,-2.7242,-2.7344,-2.7347,-2.7391,-2.7411,-2.7413,-2.7433,-2.7433,-2.7434,-2.7441,-2.7443,-2.7427,-2.7427,-2.7428,-2.7428,0,-2.6264,-2.6344,-2.64,-2.6477,-2.6594,-2.6671,-2.6684,-2.6817,-2.6869,-2.696,-2.7038,-2.7108,-2.7252,-2.733,-2.7389,-2.7403,-2.7459,-2.7428,-2.7399,-2.7442,-2.7441,-2.744,-2.7446,-2.7447,-2.7431,-2.7431,-2.7431,0,-2.628,-2.6377,-2.6416,-2.6557,-2.6634,-2.6708,-2.6767,-2.6842,-2.6898,-2.6999,-2.7089,-2.7161,-2.7274,-2.7356,-2.7397,-2.7415,-2.7495,-2.749,-2.7484,-2.7491,-2.7539,-2.7537,-2.7535,-2.7556,-2.7556,-2.7556,0,0,-2.631,-2.6382,-2.652,-2.6576,-2.6619,-2.6735,-2.6786,-2.6849,-2.6948,-2.6987,-2.7081,-2.7176,-2.7262,-2.7316,-2.7402,-2.7476,-2.7508,-2.75,-2.7494,-2.7489,-2.7493,-2.7539,-2.7537,-2.7556,-2.7556,-2.7556,0,0,-2.6325,-2.6486,-2.6527,-2.6606,-2.6697,-2.6837,-2.6868,-2.6923,-2.7011,-2.7016,-2.7128,-2.7159,-2.7237,-2.7305,-2.7291,-2.7415,-2.7444,-2.745,-2.7367,-2.7362,-2.7356,-2.7338,-2.7367,0,0,0,0,0,-2.6433,-2.6466,-2.6502,-2.6531,-2.671,-2.6817,-2.6841,-2.6934,-2.6952,-2.6974,-2.7062,-2.7118,-2.7321,-2.7311,-2.7339,-2.7354,-2.7555,-2.7555,-2.7555,-2.7467,-2.746,-2.7454,0,0,0,0,0,0,-2.6445,-2.6481,-2.6501,-2.6641,-2.6682,-2.6817,-2.6868,-2.6895,-2.6952,-2.6961,-2.7099,-2.7122,-2.7204,-2.7303,-2.7327,-2.7339,-2.7359,-2.7555,-2.7555,-2.7555,-2.7465,-2.7459,-2.7454,0,0,0,0,0,-2.6456,-2.6484,-2.6747,-2.6641,-2.6677,-2.6808,-2.6868,-2.689,-2.6936,-2.7072,-2.7096,-2.7001,-2.7202,-2.7229,-2.7318,-2.7326,-2.7343,-2.7352,-2.7555,-2.7555,-2.7555,-2.7462,0,0,0,0,0,0,-2.6463,-2.6506,-2.6756,-2.6771,-2.6636,-2.6803,-2.6832,-2.6886,-2.7045,-2.707,-2.6979,-2.6984,-2.7201,-2.7222,-2.7242,-2.7316,-2.733,-2.7339,-2.7345,-2.7555,-2.7555,-2.7555,0,0,0,0,0,0,-2.6492,-2.6518,-2.6764,-2.6751,-2.6765,-2.6797,-2.6823,-2.6913,-2.7046,-2.6944,-2.6954,-2.6979,-2.7171,-2.7217,-2.7233,-2.7369,-2.732,-2.7329,-2.7334,-2.7338,-2.7555,-2.7555,0,0,0,0,0,0,-2.6504,-2.6527,-2.6748,-2.6759,-2.6771,-2.694,-2.6878,-2.7057,-2.7033,-2.6936,-2.7034,-2.7034,-2.7165,-2.7183,-2.7227,-2.7355,-2.7365,-2.7321,-2.7326,-2.733,-2.7333,0,0,0,0,0,0,0,-2.6515,-2.6341,-2.667,-2.6765,-2.6776,-2.6904,-2.6908,-2.6912,-2.7033,-2.7034,-2.7034,-2.7034,-2.7272,-2.7281,-2.7291,-2.7344,0,0,-2.732,-2.7324,0,0,0,0,0,0,0,0,-2.6333,-2.6339,-2.6671,-2.6674,-2.6677,-2.6905,-2.6908,-2.6911,-2.7033,-2.7034,-2.7034,-2.7034,-2.7275,-2.7282,-2.729,0,0,0,0,0,0,0,0,0,0,0,0,0,0,0,-2.6671,-2.6674,0,-2.6905,-2.6908,-2.6911,-2.7033,-2.7034,-2.7034,-2.7034,-2.7277,-2.7283,-2.7289,0,0,0,0,0,0,0,0,0,0,0,0,0,0,0,0,0,0,0,0,0,0,0,0,0,0,0,0,0,0,0,0,0,0,0,0,0,0,0,0,0,0,0,0,0,0,0,0,0,0,0,0,0,0,0,0,0,0,0,0,0,0,0,0,0,0,0,0,0]}]]]